Find Starlink 36460

NORAD ID: 67432 Int'l Des: 2026-005 Owner: SPXS Country: US Constellation: starlink operational
LEOCIRCULAR

Live Position

Loading 3D Globe...

About Starlink 36460

Description loading...

Upcoming Passes

Passes for default location (London). Set your location on the main map for personalized predictions.

Altitude History

Loading altitude history...

Two-Line Element Set

1 67432U 26005AE 26106.49643419 .00021822 00000-0 79942-3 0 9999
2 67432 43.0061 24.8809 0001749 241.6764 118.3911 15.27611319 14465
Epoch: Apr 16, 2026 • Age: 11 hours

Current Status

Altitude 483.1 km
Velocity 7.63 km/s
Sub-Earth Point 18.23°N, 147.53°W
Launch Date Jan 12, 2026
Age 0.2 years
Type internet

Technical Details

Classification Payload
Mass 575.00 kg
Dry Mass 530.00 kg
Total Mass 575.00 kg
Length 0.30 m
Diameter 4.10 m
Span 29.00 m
Shape Box + pan
Manufacturer SPXS
Bus Type Starlink V2MO
Phase Status In Orbit
Owner/State SPXS/US

Most Searched